Location: Frydek-Mistek
(49.6830°N, 18.3330°E)
Time: 01:14:16
(UTC+02:00)

ISS - Visible Passes

Search period start: 06 May 2021 00:00
Search period end: 16 May 2021 00:00
Orbit: 418 x 421 km, 51.6° (Epoch: 05 May)

Date Brightness Start Highest point End Pass type
(mag) Time Alt. Az. Time Alt. Az. Time Alt. Az.
06 May -3.9 02:48:19 64° SW 02:48:42 75° SSE 02:52:06 10° ENE visible
06 May -3.2 04:22:16 10° W 04:25:38 59° N 04:28:59 10° E visible
07 May -2.6 02:02:24 35° E 02:02:24 35° E 02:04:38 10° ENE visible
07 May -3.4 03:35:20 14° W 03:38:09 63° N 03:41:31 10° ENE visible
08 May -1.2 01:16:27 15° E 01:16:27 15° E 01:17:08 10° E visible
08 May -3.6 02:49:24 35° W 02:50:40 71° NNW 02:54:03 10° ENE visible
08 May -3.3 04:24:19 10° WNW 04:27:40 65° N 04:31:04 10° E visible
09 May -3.7 02:03:25 77° NE 02:03:25 77° NE 02:06:37 10° ENE visible
09 May -3.2 03:36:51 10° WNW 03:40:12 60° N 03:43:33 10° E visible
10 May -2.1 01:17:25 28° ENE 01:17:25 28° ENE 01:19:09 10° ENE visible
10 May -3.2 02:50:21 18° WNW 02:52:42 59° N 02:56:04 10° E visible
10 May -3.7 04:26:16 10° WNW 04:29:40 87° SSW 04:33:03 10° ESE visible
11 May -1.0 00:31:23 12° ENE 00:31:23 12° ENE 00:31:41 10° ENE visible
11 May -3.4 02:04:19 43° WNW 02:05:12 63° N 02:08:34 10° ENE visible
11 May -3.6 03:38:49 10° WNW 03:42:12 76° NNE 03:45:36 10° E visible
12 May -3.2 01:18:14 57° NE 01:18:14 57° NE 01:21:05 10° ENE visible
12 May -3.4 02:51:21 10° WNW 02:54:43 66° N 02:58:06 10° E visible
13 May -2.0 00:32:03 25° ENE 00:32:03 25° ENE 00:33:37 10° ENE visible
13 May -3.3 02:04:58 19° WNW 02:07:13 60° N 02:10:35 10° E visible
13 May -3.8 03:40:45 10° WNW 03:44:07 67° SSW 03:47:28 10° ESE visible
13 May -1.3 23:45:40 14° ENE 23:45:40 14° ENE 23:46:10 10° ENE visible
14 May -3.2 01:18:33 35° WNW 01:19:43 59° N 01:23:04 10° E visible
14 May -3.9 02:53:17 10° WNW 02:56:41 87° SSW 03:00:04 10° ESE visible
14 May -1.9 21:17:39 10° SSE 21:19:08 12° SE 21:20:39 10° ESE visible
14 May -3.8 22:52:04 10° SW 22:55:22 55° SSE 22:58:41 10° ENE visible
15 May -3.3 00:28:51 10° W 00:32:12 63° N 00:35:34 10° ENE visible
15 May -3.7 02:05:49 10° WNW 02:09:13 76° NNE 02:12:35 10° E visible
15 May -3.1 03:42:47 10° W 03:45:52 33° SSW 03:48:57 10° SSE visible
15 May -3.3 22:04:50 10° SW 22:07:59 39° SSE 22:11:10 10° E visible
15 May -3.6 23:41:20 10° W 23:44:42 71° NNW 23:48:05 10° ENE visible
